Time,TemperatureF,DewpointF,PressureIn,WindDirection,WindDirectionDegrees,WindSpeedMPH,WindSpeedGustMPH,Humidity,HourlyPrecipIn,Conditions,Clouds,dailyrainin,SoftwareType,DateUTC
2013-03-18 01:05:00,14.8,-8.0,30.26,WNW,294,1.0,10.0,35,0.00,,,0.00,Wunderground v.1.15,2013-03-18 05:05:00,
2013-03-18 01:15:00,14.3,-7.8,30.27,WNW,286,3.0,10.0,36,0.00,,,0.00,Wunderground v.1.15,2013-03-18 05:15:00,
2013-03-18 01:26:00,14.1,-8.0,30.27,West,272,3.0,10.0,36,0.00,,,0.00,Wunderground v.1.15,2013-03-18 05:26:00,
2013-03-18 02:36:00,12.8,-6.0,30.28,West,269,1.0,1.0,42,0.00,,,0.00,Wunderground v.1.15,2013-03-18 06:36:00,
2013-03-18 03:05:00,12.4,-5.9,30.28,ENE,75,1.0,1.0,43,0.00,,,0.00,Wunderground v.1.15,2013-03-18 07:05:00,
2013-03-18 03:16:00,12.1,-6.6,30.29,ENE,75,0.0,4.0,42,0.00,,,0.00,Wunderground v.1.15,2013-03-18 07:16:00,
2013-03-18 03:26:00,11.6,-6.6,30.29,ENE,75,0.0,4.0,43,0.00,,,0.00,Wunderground v.1.15,2013-03-18 07:26:00,
2013-03-18 04:15:00,10.7,-6.1,30.29,ENE,75,0.0,3.0,46,0.00,,,0.00,Wunderground v.1.15,2013-03-18 08:15:00,
2013-03-18 04:26:00,10.7,-6.1,30.29,ENE,75,0.0,3.0,46,0.00,,,0.00,Wunderground v.1.15,2013-03-18 08:26:00,
2013-03-18 05:05:00,10.2,-5.2,30.31,ENE,75,0.0,4.0,49,0.00,,,0.00,Wunderground v.1.15,2013-03-18 09:05:00,
2013-03-18 05:16:00,9.9,-4.6,30.33,ENE,75,0.0,4.0,51,0.00,,,0.00,Wunderground v.1.15,2013-03-18 09:16:00,
2013-03-18 05:26:00,10.2,-6.1,30.33,ENE,75,0.0,4.0,47,0.00,,,0.00,Wunderground v.1.15,2013-03-18 09:26:00,
2013-03-18 06:06:00,10.5,-6.7,30.34,ENE,75,0.0,2.0,45,0.00,,,0.00,Wunderground v.1.15,2013-03-18 10:06:00,
2013-03-18 06:16:00,10.7,-6.5,30.35,ENE,75,0.0,2.0,45,0.00,,,0.00,Wunderground v.1.15,2013-03-18 10:16:00,
2013-03-18 06:26:00,10.5,-5.8,30.35,ENE,75,0.0,2.0,47,0.00,,,0.00,Wunderground v.1.15,2013-03-18 10:26:00,
2013-03-18 07:05:00,10.0,-5.8,30.37,ENE,75,0.0,2.0,48,0.00,,,0.00,Wunderground v.1.15,2013-03-18 11:05:00,
2013-03-18 07:16:00,10.0,-4.2,30.38,ENE,75,0.0,2.0,52,0.00,,,0.00,Wunderground v.1.15,2013-03-18 11:16:00,
2013-03-18 07:26:00,10.0,-5.0,30.38,ENE,75,0.0,2.0,50,0.00,,,0.00,Wunderground v.1.15,2013-03-18 11:26:00,
2013-03-18 08:06:00,13.1,-3.4,30.38,East,97,1.0,1.0,47,0.00,,,0.00,Wunderground v.1.15,2013-03-18 12:06:00,
2013-03-18 09:05:00,17.2,-2.0,30.38,ESE,109,1.0,4.0,42,0.00,,,0.00,Wunderground v.1.15,2013-03-18 13:05:00,
2013-03-18 09:15:00,18.0,-3.4,30.38,ESE,109,1.0,1.0,38,0.00,,,0.00,Wunderground v.1.15,2013-03-18 13:15:00,
2013-03-18 09:26:00,19.1,-3.0,30.38,ESE,110,0.0,4.0,37,0.00,,,0.00,Wunderground v.1.15,2013-03-18 13:26:00,
2013-03-18 09:46:00,20.6,-2.8,30.38,ESE,110,1.0,3.0,35,0.00,,,0.00,Wunderground v.1.15,2013-03-18 13:46:00,
2013-03-18 09:56:00,20.3,-3.7,30.38,ESE,115,1.0,3.0,34,0.00,,,0.00,Wunderground v.1.15,2013-03-18 13:56:00,
2013-03-18 11:06:00,25.0,-3.6,30.36,SSE,155,1.0,1.0,28,0.00,,,0.00,Wunderground v.1.15,2013-03-18 15:06:00,
2013-03-18 11:16:00,26.3,-2.4,30.36,SE,124,1.0,6.0,28,0.00,,,0.00,Wunderground v.1.15,2013-03-18 15:16:00,
2013-03-18 12:06:00,27.8,-1.9,30.34,East,100,2.0,5.0,27,0.00,,,0.00,Wunderground v.1.15,2013-03-18 16:06:00,
2013-03-18 12:15:00,28.8,-2.7,30.34,SSE,150,2.0,2.0,25,0.00,,,0.00,Wunderground v.1.15,2013-03-18 16:15:00,
2013-03-18 12:26:00,29.8,-4.5,30.34,WSW,240,1.0,5.0,22,0.00,,,0.00,Wunderground v.1.15,2013-03-18 16:26:00,
2013-03-18 12:35:00,30.1,-2.4,30.33,ENE,69,2.0,2.0,24,0.00,,,0.00,Wunderground v.1.15,2013-03-18 16:35:00,
2013-03-18 14:06:00,34.4,1.3,30.27,SE,142,2.0,10.0,24,0.00,,,0.00,Wunderground v.1.15,2013-03-18 18:06:00,
2013-03-18 15:05:00,33.5,0.5,30.26,SSE,155,3.0,14.0,24,0.00,,,0.00,Wunderground v.1.15,2013-03-18 19:05:00,
2013-03-18 15:35:00,33.4,0.4,30.25,SE,140,5.0,5.0,24,0.00,,,0.00,Wunderground v.1.15,2013-03-18 19:35:00,
2013-03-18 15:45:00,33.2,-0.7,30.25,SE,133,3.0,13.0,23,0.00,,,0.00,Wunderground v.1.15,2013-03-18 19:45:00,
2013-03-18 15:56:00,32.9,0.0,30.25,East,82,4.0,4.0,24,0.00,,,0.00,Wunderground v.1.15,2013-03-18 19:56:00,
2013-03-18 16:36:00,33.1,0.2,30.24,ENE,69,3.0,3.0,24,0.00,,,0.00,Wunderground v.1.15,2013-03-18 20:36:00,
2013-03-18 16:46:00,32.5,-1.3,30.24,SE,133,5.0,13.0,23,0.00,,,0.00,Wunderground v.1.15,2013-03-18 20:46:00,
2013-03-18 17:36:00,31.9,0.8,30.23,SSE,147,2.0,12.0,26,0.00,,,0.00,Wunderground v.1.15,2013-03-18 21:36:00,
2013-03-18 17:46:00,31.8,-0.1,30.23,SSE,150,4.0,4.0,25,0.00,,,0.00,Wunderground v.1.15,2013-03-18 21:46:00,
2013-03-18 17:56:00,31.6,0.6,30.23,ENE,67,2.0,12.0,26,0.00,,,0.00,Wunderground v.1.15,2013-03-18 21:56:00,
2013-03-18 18:36:00,30.7,0.6,30.23,SE,145,2.0,2.0,27,0.00,,,0.00,Wunderground v.1.15,2013-03-18 22:36:00,
2013-03-18 18:46:00,30.4,1.1,30.22,SE,145,1.0,1.0,28,0.00,,,0.00,Wunderground v.1.15,2013-03-18 22:46:00,
2013-03-18 19:05:00,30.3,1.0,30.23,SE,125,2.0,7.0,28,0.00,,,0.00,Wunderground v.1.15,2013-03-18 23:05:00,
2013-03-18 19:16:00,30.0,0.0,30.22,SSE,149,3.0,3.0,27,0.00,,,0.00,Wunderground v.1.15,2013-03-18 23:16:00,
2013-03-18 19:26:00,29.7,-0.3,30.22,SSE,149,1.0,7.0,27,0.00,,,0.00,Wunderground v.1.15,2013-03-18 23:26:00,
2013-03-18 19:45:00,29.1,0.7,30.21,SE,128,1.0,7.0,29,0.00,,,0.00,Wunderground v.1.15,2013-03-18 23:45:00,
2013-03-18 19:56:00,28.8,1.2,30.21,SE,128,1.0,1.0,30,0.00,,,0.00,Wunderground v.1.15,2013-03-18 23:56:00,
2013-03-18 20:05:00,29.1,-0.8,30.22,SSE,148,3.0,9.0,27,0.00,,,0.00,Wunderground v.1.15,2013-03-19 00:05:00,
2013-03-18 20:15:00,29.1,0.0,30.22,South,185,3.0,3.0,28,0.00,,,0.00,Wunderground v.1.15,2013-03-19 00:15:00,
2013-03-18 20:26:00,29.1,-0.8,30.22,South,171,2.0,9.0,27,0.00,,,0.00,Wunderground v.1.15,2013-03-19 00:26:00,
2013-03-18 21:06:00,28.4,-1.4,30.23,SE,136,1.0,4.0,27,0.00,,,0.00,Wunderground v.1.15,2013-03-19 01:06:00,
2013-03-18 21:35:00,28.4,-0.6,30.22,SSE,157,1.0,7.0,28,0.00,,,0.00,Wunderground v.1.15,2013-03-19 01:35:00,
2013-03-18 21:45:00,28.5,-0.5,30.21,SE,146,2.0,7.0,28,0.00,,,0.00,Wunderground v.1.15,2013-03-19 01:45:00,
2013-03-18 21:56:00,28.4,-0.6,30.21,SE,146,0.0,7.0,28,0.00,,,0.00,Wunderground v.1.15,2013-03-19 01:56:00,
2013-03-18 22:35:00,27.9,1.8,30.21,SSE,163,1.0,6.0,32,0.00,,,0.00,Wunderground v.1.15,2013-03-19 02:35:00,
2013-03-18 22:46:00,27.9,2.5,30.22,SSE,163,2.0,6.0,33,0.00,,,0.00,Wunderground v.1.15,2013-03-19 02:46:00,
2013-03-18 22:55:00,27.8,3.6,30.22,SE,125,2.0,6.0,35,0.00,,,0.00,Wunderground v.1.15,2013-03-19 02:55:00,
2013-03-18 23:16:00,27.3,5.6,30.20,SE,127,1.0,1.0,39,0.00,,,0.00,Wunderground v.1.15,2013-03-19 03:16:00,